Weather History for Albany, GA

Change the Weather History Date:

Thursday, November 17, 2011

  Actual Average Record
Temperature  
Mean Temperature 60 °F 58 °F  
Max Temperature 69 °F 71 °F 85 °F (1958)
Min Temperature 46 °F 45 °F 23 °F (1970)
Degree Days  
Heating Degree Days 6 7  
Month to date heating degree days 96  
Since 1 July heating degree days 146  
Cooling Degree Days 0 1  
Month to date cooling degree days 23  
Year to date cooling degree days 2526  
Growing Degree Days 10 (Base 50)    
Moisture  
Dew Point 46 °F    
Average Humidity 60    
Maximum Humidity 94    
Minimum Humidity 25    
Precipitation  
Precipitation 0.00 in 0.10 in 0.07 in (2002)
Month to date precipitation 1.49  
Year to date precipitation 43.12  
Sea Level Pressure  
Sea Level Pressure 30.11 in    
Wind  
Wind Speed 8 mph (NW)    
Max Wind Speed 15 mph    
Max Gust Speed 25 mph    
Visibility 9 miles    
Events      
T = Trace of Precipitation, MM = Missing Value Source: NWS Daily Summary

Daily Weather History Graph

Daily Weather History Graph

Search for Another Location

Airport:

Trip Planner

Search our weather history database for the weather conditions in past years. The results will help you decide how hot, cold, wet, or windy it might be!

Date:

Astronomy

Nov. 17, 2011 Rise Set
Actual Time 7:06 AM EST 5:36 PM EST
Civil Twilight 6:40 AM EST 6:02 PM EST
Nautical Twilight 6:10 AM EST 6:32 PM EST
Astronomical Twilight 5:41 AM EST 7:01 PM EST
Moon 11:48 PM EST (11/17) 12:20 PM EST (11/17)
Length of Visible Light 11h 22m
Length of Day
10h 30m
Waning Gibbous, 60% of the Moon is Illuminated
Nov 17
Waning Gibbous
Nov 18
Last Quarter
Nov 25
New
Dec 2
First Quarter
Dec 10
Full

Hourly Weather History & Observations

Time (EST) Temp. Dew Point Humidity Pressure Visibility Wind Dir Wind Speed Gust Speed Precip Events Conditions
12:53 AM 68.0 °F 64.9 °F 90% 29.91 in 9.0 mi WSW 5.8 mph - N/A   Clear
1:53 AM 66.9 °F 64.0 °F 90% 29.91 in 9.0 mi SW 5.8 mph - N/A   Clear
2:53 AM 66.0 °F 63.0 °F 90% 29.92 in 8.0 mi WSW 3.5 mph - N/A   Clear
3:53 AM 66.0 °F 64.0 °F 93% 29.94 in 7.0 mi SW 4.6 mph - N/A   Overcast
4:05 AM 66.2 °F 64.4 °F 94% 29.94 in 8.0 mi West 5.8 mph - N/A   Overcast
4:53 AM 66.0 °F 63.0 °F 90% 29.96 in 7.0 mi West 6.9 mph - N/A   Overcast
5:53 AM 64.9 °F 63.0 °F 93% 29.97 in 6.0 mi WSW 4.6 mph - N/A   Scattered Clouds
6:25 AM 66.2 °F 62.6 °F 88% 30.01 in 8.0 mi WNW 10.4 mph 19.6 mph N/A   Mostly Cloudy
6:53 AM 63.0 °F 57.9 °F 84% 30.03 in 10.0 mi NW 15.0 mph 23.0 mph N/A   Overcast
7:53 AM 62.1 °F 55.0 °F 78% 30.08 in 10.0 mi NW 11.5 mph - N/A   Overcast
8:53 AM 60.8 °F 53.6 °F 77% 30.12 in 10.0 mi NNW 11.5 mph - N/A   Overcast
9:53 AM 62.1 °F 52.0 °F 70% 30.13 in 10.0 mi NW 13.8 mph - N/A   Overcast
10:53 AM 64.9 °F 51.1 °F 61% 30.15 in 10.0 mi NNW 11.5 mph - N/A   Mostly Cloudy
11:53 AM 66.0 °F 48.0 °F 52% 30.15 in 10.0 mi NW 9.2 mph 18.4 mph N/A   Partly Cloudy
12:53 PM 69.1 °F 44.1 °F 40% 30.13 in 10.0 mi NNW 10.4 mph - N/A   Clear
1:53 PM 69.1 °F 41.0 °F 36% 30.12 in 10.0 mi NNW 15.0 mph 25.3 mph N/A   Clear
2:53 PM 69.1 °F 39.0 °F 33% 30.12 in 10.0 mi NNW 12.7 mph 20.7 mph N/A   Clear
3:53 PM 68.0 °F 30.9 °F 25% 30.13 in 10.0 mi NNW 15.0 mph 23.0 mph N/A   Clear
4:53 PM 64.9 °F 30.9 °F 28% 30.16 in 10.0 mi North 11.5 mph - N/A   Clear
5:53 PM 61.0 °F 30.0 °F 31% 30.19 in 10.0 mi NNW 11.5 mph - N/A   Clear
6:53 PM 57.9 °F 28.0 °F 32% 30.23 in 10.0 mi North 9.2 mph 20.7 mph N/A   Clear
7:53 PM 55.0 °F 27.0 °F 34% 30.26 in 10.0 mi North 9.2 mph 16.1 mph N/A   Clear
8:53 PM 53.1 °F 27.0 °F 37% 30.29 in 10.0 mi North 6.9 mph - N/A   Clear
9:53 PM 51.1 °F 27.0 °F 39% 30.31 in 10.0 mi North 11.5 mph 16.1 mph N/A   Clear
10:53 PM 50.0 °F 26.1 °F 39% 30.32 in 10.0 mi North 9.2 mph - N/A   Clear
11:53 PM 46.9 °F 26.1 °F 44% 30.32 in 10.0 mi NNE 4.6 mph - N/A   Clear